[[{"header":{"parameterUnit":"m.s-1","parameterCategory":2,"la1":30.2991,"la2":30.254,"lo1":-89.0895,"lo2":-89.0444,"dy":0.0017,"dx":0.0017,"nx":28,"ny":28,"refTime":"2025-05-29T03:00:00:Z","depth":"0","parameterNumber":2,"parameterNumberName":"U-component_of_CURRENTS"},"data":[0,0,0,0,0,0,0,0,0,0,0,0,0,0,0,0,0,0,0,0,0,0,0,0,0,0,0,0,0,0,0,0,0,0,0,0,0,0,0,0,0,0,0,0,0,0,0,0,0,0,0,0,0,0,0,0,0,0,0.1256,0.1256,0,0.1267,0.1267,0.1267,0.1251,0.1251,0.125,0.125,0.1283,0.1285,0.1286,0,0,0,0,0,0,0,0,0,0,0,0,0,0.1166,0.1168,0.1256,0.1256,0.1256,0.1267,0.1267,0.1267,0.1251,0.1251,0.125,0.1249,0.1283,0.1284,0.1286,0,0,0,0,0,0,0,0,0,0,0,0,0,0.1194,0.1169,0.1256,0.125,0.1249,0.1267,0.1267,0.1267,0.1251,0.125,0.125,0.1249,0.1282,0.1284,0.1286,0.1314,0,0,0.1293,0.1293,0,0,0,0,0,0,0,0,0.1192,0.1197,0.125,0.125,0.125,0.1257,0.1248,0.1284,0.1251,0.125,0.125,0.1249,0.1278,0.128,0.1283,0.1316,0.1318,0.1293,0.1294,0.1295,0.1295,0,0,0,0,0,0,0,0.119,0.1196,0.1259,0.1251,0.125,0.1228,0.1232,0.1254,0.1268,0.125,0.1249,0.1251,0.1277,0.1281,0.1283,0.1318,0.1293,0.1295,0.1296,0.1297,0.1406,0.1407,0,0,0,0,0,0,0.1194,0.1195,0.1259,0.126,0.1219,0.1231,0.1234,0.1255,0.1267,0.1268,0.1252,0.1251,0.1278,0.1281,0.1285,0.1368,0.1295,0.1297,0.1298,0.1404,0.1406,0.1408,0,0,0,0,0,0,0.1193,0.1201,0.1259,0.1226,0.1232,0.1234,0.1257,0.1256,0.1267,0.1269,0.127,0.1265,0.1277,0.1282,0.1328,0.1367,0.1298,0.13,0.1402,0.1405,0.1407,0.1503,0,0,0,0,0,0,0.119,0.1201,0.1218,0.1228,0.1234,0.1288,0.1257,0.1257,0.127,0.1268,0.1281,0.1282,0.1277,0.1326,0.1331,0.1369,0.1301,0.14,0.1403,0.1406,0.1498,0.1509,0.1518,0,0,0,0,0,0.1188,0.1218,0.1219,0.1227,0.1259,0.129,0.1292,0.1288,0.1271,0.1292,0.1302,0.1282,0.1348,0.133,0.1335,0.1374,0.1399,0.1402,0.1406,0.1493,0.1506,0.1518,0,0,0,0,0,0,0.1194,0.122,0.1221,0.126,0.1281,0.1288,0.1302,0.1299,0.1321,0.1319,0.1313,0.1317,0.1369,0.136,0.1339,0.1413,0.1366,0.1371,0.1431,0.1443,0.1453,0.1443,0.1303,0,0,0,0,0,0.1204,0.1238,0.1253,0.1292,0.1296,0.1301,0.1311,0.1314,0.1331,0.1338,0.1348,0.136,0.1388,0.1406,0.1422,0.1473,0.1493,0.1497,0.1507,0.1516,0.1511,0.1578,0.1594,0.142,0.142,0.142,0,0,0.1224,0.124,0.1263,0.1296,0.1305,0.134,0.1306,0.1333,0.1371,0.1341,0.1396,0.1398,0.1408,0.1461,0.1483,0.1461,0.1587,0.152,0.1528,0.1518,0.1584,0.1601,0.1616,0.1423,0.1422,0.1422,0,0,0.1279,0.1288,0.133,0.1348,0.1369,0.1375,0.1387,0.1403,0.1415,0.1465,0.1454,0.148,0.1519,0.1536,0.1549,0.1624,0.1635,0.163,0.168,0.1747,0.1762,0.1775,0.1871,0.1892,0.1638,0.1638,0.1638,0,0.1297,0.1356,0.1349,0.1386,0.1405,0.1396,0.144,0.1461,0.1496,0.1515,0.1494,0.1554,0.1554,0.1626,0.1643,0.1647,0.1697,0.1637,0.1761,0.1774,0.1786,0.1881,0.1903,0.1643,0.1642,0.1642,0.1641,0,0.138,0.1423,0.1447,0.1495,0.1512,0.1553,0.1567,0.1597,0.1598,0.1614,0.1671,0.1674,0.1707,0.1713,0.1699,0.1787,0.1803,0.1767,0.1733,0.181,0.1905,0.1926,0.165,0.1648,0.1647,0.1646,0,0,0.1444,0.1494,0.151,0.1533,0.1569,0.159,0.1651,0.1699,0.1738,0.1762,0.1816,0.1846,0.1832,0.1843,0.1837,0.1878,0.2011,0.186,0.1862,0.1961,0.2201,0.2326,0.2361,0.2007,0.201,0.2012,0.2251,0,0.1517,0.1597,0.1605,0.1685,0.172,0.1718,0.1771,0.1807,0.1831,0.1883,0.1888,0.1934,0.1892,0.1908,0.1951,0.1981,0.2063,0.1951,0.2105,0.211,0.2216,0.2388,0.2414,0.2639,0.2271,0.2275,0.2277,0,0.1607,0.1643,0.1721,0.1762,0.1774,0.1814,0.1869,0.1914,0.1975,0.1991,0.2035,0.2042,0.2111,0.2048,0.2184,0.2122,0.2177,0.2198,0.2208,0.2298,0.2275,0.2492,0.269,0.2556,0.2309,0.2307,0.2305,0,0.1654,0.1727,0.1785,0.1803,0.1848,0.1874,0.1896,0.1949,0.1982,0.2062,0.2097,0.2176,0.2223,0.2288,0.2348,0.228,0.2504,0.2417,0.2598,0.2608,0.2645,0.2654,0.273,0.2541,0.2541,0.254,0.2539,0,0.1734,0.178,0.1806,0.1838,0.1888,0.1902,0.1958,0.1994,0.205,0.2109,0.2152,0.2232,0.2282,0.2405,0.2433,0.2627,0.2599,0.2661,0.2696,0.2686,0.2695,0.2586,0.2471,0.2549,0.2547,0.2545,0.2544,0,0.1781,0.1812,0.1863,0.1902,0.1911,0.1939,0.1967,0.2009,0.2068,0.2151,0.2182,0.231,0.2499,0.259,0.2732,0.2773,0.2846,0.2975,0.2985,0.3018,0.304,0.293,0.294,0.2855,0.3221,0.3226,0.323,0,0.1811,0.1845,0.1886,0.1903,0.1918,0.195,0.1972,0.2013,0.2058,0.2206,0.2258,0.2472,0.2631,0.2936,0.3083,0.3271,0.3055,0.3381,0.3243,0.3109,0.3009,0.2785,0.2691,0.3343,0.3348,0.3352,0.3355,0,0.1835,0.1847,0.1875,0.1914,0.1937,0.1961,0.1999,0.2032,0.2106,0.22,0.2371,0.2513,0.2875,0.3103,0.3386,0.349,0.3226,0.3468,0.3313,0.313,0.2905,0.2817,0.3119,0.3389,0.3385,0.3383,0.3381,0.3379,0.1823,0.184,0.1867,0.1899,0.1929,0.1958,0.1961,0.2031,0.2107,0.2234,0.241,0.2616,0.2984,0.3408,0.3514,0.3687,0.3497,0.3599,0.3491,0.3286,0.3155,0.357,0.3877,0.3877,0.3876,0.3876,0.3875,0,0.1784,0.1807,0.1843,0.1867,0.1877,0.191,0.196,0.1966,0.2045,0.2238,0.2396,0.2767,0.3091,0.3373,0.3698,0.3657,0.3478,0.357,0.3204,0.3118,0.3516,0.3472,0.3724,0.3724,0.3724,0.3724,0.3724,0.3724,0.1758,0.1771,0.1793,0.1792,0.1811,0.1797,0.1812,0.1866,0.198,0.2176,0.2369,0.2565,0.2956,0.334,0.3478,0.347,0.3126,0.3116,0.2941,0.3165,0.3154,0.3143,0.3074,0.3238,0.3237,0.248,0.2474,0.2469]},{"header":{"parameterUnit":"m.s-1","parameterCategory":2,"la1":30.2991,"la2":30.254,"lo1":-89.0895,"lo2":-89.0444,"dy":0.0017,"dx":0.0017,"nx":28,"ny":28,"refTime":"2025-05-29T03:00:00:Z","depth":"0","parameterNumber":3,"parameterNumberName":"V-component_of_CURRENTS"},"data":[0,0,0,0,0,0,0,0,0,0,0,0,0,0,0,0,0,0,0,0,0,0,0,0,0,0,0,0,0,0,0,0,0,0,0,0,0,0,0,0,0,0,0,0,0,0,0,0,0,0,0,0,0,0,0,0,0,0,-0.1233,-0.1233,0,-0.1248,-0.1248,-0.1249,-0.1264,-0.1264,-0.1264,-0.1264,-0.1317,-0.1318,-0.132,0,0,0,0,0,0,0,0,0,0,0,0,0,-0.1259,-0.1259,-0.1233,-0.1233,-0.1233,-0.1248,-0.1248,-0.1249,-0.1264,-0.1264,-0.1264,-0.1264,-0.1316,-0.1318,-0.132,0,0,0,0,0,0,0,0,0,0,0,0,0,-0.1262,-0.1258,-0.1233,-0.124,-0.124,-0.1248,-0.1248,-0.1249,-0.1264,-0.1264,-0.1264,-0.1264,-0.1316,-0.1318,-0.132,-0.1338,0,0,-0.1327,-0.1328,0,0,0,0,0,0,0,0,-0.1261,-0.1261,-0.1239,-0.1239,-0.124,-0.1251,-0.1276,-0.1279,-0.1264,-0.1259,-0.1264,-0.1264,-0.1296,-0.13,-0.1308,-0.134,-0.1343,-0.1327,-0.1329,-0.133,-0.133,0,0,0,0,0,0,0,-0.1261,-0.1261,-0.1243,-0.1239,-0.1239,-0.1255,-0.1255,-0.1277,-0.1282,-0.126,-0.126,-0.1255,-0.1297,-0.1306,-0.1309,-0.1343,-0.1327,-0.1329,-0.1331,-0.1332,-0.1389,-0.1389,0,0,0,0,0,0,-0.125,-0.126,-0.1242,-0.1243,-0.1246,-0.1254,-0.1255,-0.1251,-0.1281,-0.1284,-0.1256,-0.1256,-0.1302,-0.1306,-0.1311,-0.1345,-0.133,-0.1332,-0.1333,-0.1389,-0.1389,-0.1389,0,0,0,0,0,0,-0.125,-0.1248,-0.1242,-0.1249,-0.1249,-0.1253,-0.1249,-0.1251,-0.1258,-0.1277,-0.1281,-0.126,-0.1302,-0.1308,-0.1333,-0.1347,-0.1333,-0.1335,-0.1389,-0.1389,-0.1389,-0.1407,0,0,0,0,0,0,-0.1251,-0.1248,-0.124,-0.1248,-0.1248,-0.1248,-0.1249,-0.1251,-0.1254,-0.1255,-0.1282,-0.1287,-0.1302,-0.1329,-0.1335,-0.135,-0.1337,-0.1389,-0.1389,-0.1389,-0.1406,-0.1407,-0.1409,0,0,0,0,0,-0.1252,-0.1232,-0.1239,-0.1237,-0.1237,-0.1248,-0.125,-0.1255,-0.1254,-0.1261,-0.1278,-0.1286,-0.1335,-0.1332,-0.1338,-0.1354,-0.1388,-0.1389,-0.1389,-0.1405,-0.1407,-0.1409,0,0,0,0,0,0,-0.1231,-0.1232,-0.124,-0.122,-0.1237,-0.1249,-0.1242,-0.1254,-0.1273,-0.1271,-0.1293,-0.13,-0.1325,-0.1334,-0.133,-0.1369,-0.1361,-0.1363,-0.1371,-0.1373,-0.1374,-0.1329,-0.1339,0,0,0,0,0,-0.1225,-0.1217,-0.1228,-0.1216,-0.1217,-0.1234,-0.1236,-0.1247,-0.1262,-0.127,-0.1296,-0.1315,-0.1333,-0.1347,-0.1365,-0.1392,-0.1355,-0.1403,-0.1404,-0.1406,-0.1372,-0.1349,-0.1345,-0.1391,-0.1391,-0.1391,0,0,-0.1212,-0.1213,-0.1207,-0.1213,-0.122,-0.1231,-0.1235,-0.1239,-0.1255,-0.1273,-0.1303,-0.1322,-0.1339,-0.1368,-0.1379,-0.1378,-0.1372,-0.1406,-0.1407,-0.1372,-0.1349,-0.1344,-0.134,-0.1391,-0.1391,-0.1391,0,0,-0.1191,-0.1185,-0.1177,-0.1193,-0.1205,-0.1219,-0.1221,-0.1245,-0.1258,-0.1292,-0.1303,-0.1325,-0.1368,-0.1379,-0.1388,-0.1406,-0.1379,-0.1419,-0.1396,-0.1376,-0.1371,-0.1367,-0.1304,-0.1294,-0.1423,-0.1423,-0.1423,0,-0.1173,-0.1164,-0.1179,-0.1185,-0.1179,-0.1215,-0.1208,-0.124,-0.1277,-0.1265,-0.1301,-0.1325,-0.1368,-0.1363,-0.1385,-0.1409,-0.1372,-0.1393,-0.1376,-0.1371,-0.1366,-0.1303,-0.1292,-0.1424,-0.1424,-0.1424,-0.1423,0,-0.1159,-0.1152,-0.1145,-0.1165,-0.1173,-0.1168,-0.1207,-0.1223,-0.1246,-0.1265,-0.1269,-0.1323,-0.1317,-0.1361,-0.139,-0.1374,-0.1348,-0.138,-0.1369,-0.1362,-0.1297,-0.1284,-0.1425,-0.1425,-0.1424,-0.1424,0,0,-0.1091,-0.1124,-0.112,-0.1103,-0.1149,-0.1136,-0.117,-0.117,-0.1134,-0.1216,-0.116,-0.1257,-0.1258,-0.1266,-0.1304,-0.1318,-0.1288,-0.1338,-0.1337,-0.1269,-0.1199,-0.116,-0.1143,-0.1318,-0.1316,-0.1315,-0.1163,0,-0.1061,-0.1046,-0.1083,-0.1058,-0.1034,-0.1073,-0.1078,-0.1093,-0.1109,-0.1078,-0.1135,-0.1112,-0.1231,-0.1207,-0.1249,-0.1261,-0.1257,-0.1323,-0.1219,-0.1214,-0.1177,-0.1129,-0.1077,-0.0935,-0.1151,-0.1149,-0.1147,0,-0.1012,-0.1004,-0.097,-0.0942,-0.0931,-0.0931,-0.0877,-0.0892,-0.089,-0.0892,-0.0902,-0.0932,-0.0957,-0.1055,-0.1082,-0.1114,-0.1147,-0.1179,-0.1174,-0.1115,-0.1153,-0.098,-0.0904,-0.1069,-0.1128,-0.1129,-0.1131,0,-0.0895,-0.0902,-0.0853,-0.0855,-0.0857,-0.0822,-0.0815,-0.0812,-0.0772,-0.0747,-0.069,-0.0746,-0.0719,-0.0804,-0.0912,-0.0977,-0.0914,-0.1006,-0.0992,-0.0988,-0.0906,-0.0899,-0.0967,-0.0997,-0.0997,-0.0998,-0.0998,0,-0.0805,-0.0752,-0.0785,-0.0748,-0.0656,-0.0699,-0.0593,-0.0594,-0.0556,-0.0463,-0.0564,-0.0482,-0.0657,-0.0666,-0.0801,-0.0832,-0.0821,-0.0943,-0.094,-0.0911,-0.0906,-0.1016,-0.1119,-0.0992,-0.0993,-0.0994,-0.0995,0,-0.0644,-0.0685,-0.0611,-0.0604,-0.0591,-0.051,-0.0454,-0.0376,-0.0365,-0.0238,-0.0214,-0.0244,-0.0254,-0.041,-0.0499,-0.0639,-0.0754,-0.0721,-0.0655,-0.0649,-0.0825,-0.093,-0.0885,-0.0927,-0.0668,-0.0666,-0.0665,0,-0.0546,-0.0501,-0.0478,-0.0431,-0.0414,-0.033,-0.0265,-0.0264,-0.0184,-0.008,0.001,0.0035,0.0075,-0.0034,-0.0258,-0.0413,-0.0612,-0.0486,-0.063,-0.0787,-0.0902,-0.0964,-0.101,-0.0518,-0.0516,-0.0513,-0.0512,0,-0.0342,-0.0348,-0.0302,-0.023,-0.016,-0.0075,0.0012,0.0094,0.0125,0.0235,0.0389,0.0436,0.0337,0.0223,-0.0014,-0.0178,-0.0568,-0.0445,-0.0627,-0.0787,-0.0833,-0.0888,-0.0652,-0.0492,-0.0494,-0.0495,-0.0496,-0.0497,-0.0177,-0.0112,-0.0086,-0.0002,0.0067,0.0177,0.0282,0.0371,0.052,0.0701,0.0703,0.0846,0.0619,0.0309,0.0064,-0.036,-0.0401,-0.0523,-0.0626,-0.0666,-0.0746,-0.0445,-0.0291,-0.0292,-0.0292,-0.0293,-0.0293,0,0.0026,0.0057,0.0141,0.0229,0.0335,0.0321,0.0467,0.058,0.0779,0.0954,0.11,0.1124,0.0822,0.0429,-0.0121,-0.0474,-0.0636,-0.0693,-0.0808,-0.0843,-0.0579,-0.0619,-0.0504,-0.0504,-0.0504,-0.0504,-0.0504,-0.0503,0.0133,0.0238,0.0254,0.0448,0.0514,0.0676,0.0766,0.0924,0.1069,0.1334,0.1472,0.1534,0.1251,0.0217,-0.0522,-0.073,-0.1009,-0.1028,-0.1177,-0.1076,-0.1071,-0.1066,-0.1131,-0.1125,-0.1126,-0.1381,-0.1384,-0.1387]}],[{"header":{"parameterUnit":"m.s-1","parameterCategory":2,"la1":30.2991,"la2":30.254,"lo1":-89.0895,"lo2":-89.0444,"dy":0.0017,"dx":0.0017,"nx":28,"ny":28,"refTime":"2025-05-29T03:00:00:Z","depth":"2","parameterNumber":2,"parameterNumberName":"U-component_of_CURRENTS"},"data":[0,0,0,0,0,0,0,0,0,0,0,0,0,0,0,0,0,0,0,0,0,0,0,0,0,0,0,0,0,0,0,0,0,0,0,0,0,0,0,0,0,0,0,0,0,0,0,0,0,0,0,0,0,0,0,0,0,0,0.0046,0.0046,0,0.006,0.0061,0.0061,0.0003,0.0001,-0.0,-0.0002,0.0025,0.0027,0.0029,0,0,0,0,0,0,0,0,0,0,0,0,0,-0.0028,-0.0027,0.0046,0.0046,0.0047,0.006,0.0061,0.0061,0.0003,0.0001,-0.0001,-0.0003,0.0024,0.0026,0.0029,0,0,0,0,0,0,0,0,0,0,0,0,0,-0.0004,-0.0026,0.0046,0.0021,0.0019,0.006,0.0061,0.0061,0.0004,0.0001,-0.0001,-0.0003,0.0023,0.0026,0.0029,0.0097,0,0,0.0039,0.0041,0,0,0,0,0,0,0,0,-0.0005,-0.0002,0.0024,0.0023,0.002,0.0029,0.0044,0.0074,0.0004,0.0008,-0.0002,-0.0005,0.003,0.0032,0.0038,0.0098,0.01,0.004,0.0042,0.0043,0.0044,0,0,0,0,0,0,0,-0.0007,-0.0002,0.005,0.0025,0.0022,0.001,0.001,0.0049,0.0031,0.0007,0.0004,0.0008,0.0028,0.0035,0.0038,0.01,0.004,0.0042,0.0044,0.0046,0.0176,0.0178,0,0,0,0,0,0,-0.0003,-0.0004,0.005,0.0051,0.0003,0.0013,0.0014,0.0027,0.003,0.0029,0.001,0.0005,0.0031,0.0035,0.0039,0.0091,0.0043,0.0046,0.0048,0.0175,0.0176,0.0178,0,0,0,0,0,0,-0.0005,0.0002,0.005,0.0024,0.0029,0.0017,0.0033,0.0029,0.0033,0.0032,0.003,0.0017,0.0029,0.0035,0.0077,0.0093,0.0048,0.0051,0.0173,0.0175,0.0177,0.0214,0,0,0,0,0,0,-0.0007,0.0002,0.0016,0.0025,0.0031,0.0086,0.0035,0.0031,0.004,0.0034,0.0039,0.0039,0.0028,0.0072,0.008,0.0096,0.0053,0.0171,0.0174,0.0177,0.0211,0.0217,0.0222,0,0,0,0,0,-0.0009,0.0028,0.0017,0.0024,0.0051,0.0089,0.0091,0.0072,0.0043,0.0063,0.0058,0.0038,0.0094,0.0077,0.0086,0.0103,0.017,0.0173,0.0176,0.0208,0.0216,0.0222,0,0,0,0,0,0,0.0006,0.0026,0.0014,0.0055,0.0073,0.0079,0.0098,0.0085,0.0098,0.0086,0.0073,0.0075,0.0113,0.0115,0.0096,0.0149,0.0124,0.0129,0.0145,0.0153,0.0158,0.0143,0.0056,0,0,0,0,0,0.0018,0.0047,0.0062,0.0095,0.0106,0.0104,0.0116,0.0105,0.0115,0.0116,0.0118,0.0122,0.0139,0.0149,0.0168,0.0215,0.0249,0.0228,0.0234,0.0239,0.0233,0.0284,0.0294,0.0189,0.0189,0.0189,0,0,0.0033,0.0048,0.0064,0.01,0.0109,0.013,0.0105,0.0133,0.014,0.0123,0.0143,0.0153,0.0158,0.0193,0.021,0.0194,0.0303,0.0243,0.0247,0.0238,0.0289,0.0299,0.0308,0.0191,0.0191,0.0191,0,0,0.0075,0.0093,0.0124,0.0142,0.0164,0.0164,0.0175,0.0189,0.0185,0.0221,0.0196,0.0214,0.0254,0.0246,0.0249,0.0307,0.0335,0.0317,0.0332,0.0384,0.0392,0.04,0.0525,0.0544,0.0316,0.0316,0.0316,0,0.0086,0.0121,0.0141,0.017,0.0177,0.018,0.02,0.0213,0.0235,0.0241,0.0232,0.0273,0.0272,0.0297,0.0302,0.0317,0.038,0.0302,0.0391,0.0398,0.0406,0.0532,0.0551,0.0318,0.0318,0.0318,0.0317,0,0.014,0.0163,0.0188,0.0212,0.0233,0.0259,0.0269,0.0288,0.0284,0.029,0.0327,0.0335,0.0355,0.0356,0.0343,0.039,0.0435,0.0395,0.0369,0.0418,0.0549,0.0569,0.0321,0.032,0.032,0.0319,0,0,0.0161,0.0212,0.0215,0.0226,0.0249,0.0274,0.0294,0.0316,0.0348,0.0358,0.0406,0.0398,0.0407,0.041,0.0405,0.0431,0.0549,0.0434,0.0436,0.0555,0.0736,0.0883,0.092,0.0528,0.053,0.0531,0.0831,0,0.0183,0.0231,0.025,0.0286,0.0304,0.0311,0.0342,0.0363,0.0391,0.0453,0.0445,0.0507,0.0429,0.0471,0.0472,0.0542,0.0593,0.0476,0.0672,0.068,0.0799,0.0943,0.0672,0.0925,0.0851,0.0854,0.0857,0,0.0212,0.0237,0.0279,0.0314,0.0327,0.0359,0.0405,0.044,0.0508,0.0542,0.0571,0.0598,0.0649,0.0584,0.0694,0.0632,0.068,0.0717,0.0729,0.0857,0.0862,0.085,0.0964,0.089,0.0887,0.0885,0.0883,0,0.0202,0.0249,0.028,0.0294,0.0349,0.0375,0.0408,0.0468,0.0535,0.0631,0.0721,0.0742,0.0842,0.0847,0.0925,0.0825,0.1092,0.0966,0.1146,0.116,0.0963,0.0957,0.1041,0.1041,0.104,0.1039,0.1038,0,0.0206,0.0234,0.029,0.0313,0.0387,0.0402,0.0503,0.0546,0.0652,0.0777,0.0786,0.0914,0.0912,0.1052,0.1034,0.1223,0.1191,0.1204,0.1252,0.0981,0.0973,0.0932,0.0915,0.105,0.1048,0.1046,0.1044,0,0.0218,0.0235,0.0304,0.0368,0.0397,0.0466,0.0591,0.0675,0.0762,0.094,0.0993,0.1121,0.1328,0.1378,0.1493,0.1449,0.1553,0.1614,0.1357,0.137,0.1552,0.1534,0.183,0.1838,0.1845,0.185,0.1855,0,0.0236,0.0269,0.0376,0.0453,0.0502,0.0598,0.068,0.0742,0.0845,0.1071,0.1177,0.1432,0.1598,0.1881,0.1825,0.1917,0.1876,0.178,0.1505,0.1619,0.1636,0.1606,0.158,0.1275,0.1275,0.1275,0.1274,0,0.0308,0.0359,0.0434,0.0574,0.0673,0.0788,0.09,0.0968,0.1076,0.1212,0.1445,0.1595,0.1844,0.1844,0.201,0.1968,0.173,0.1785,0.1975,0.1143,0.1127,0.1133,0.1118,0.1271,0.1271,0.1271,0.1271,0.1272,0.0407,0.0489,0.0599,0.073,0.0848,0.0972,0.1031,0.115,0.1283,0.1439,0.1571,0.1707,0.1668,0.1792,0.1813,0.1812,0.1865,0.17,0.1686,0.1676,0.1583,0.1582,0.1799,0.1802,0.1805,0.1807,0.181,0,0.0553,0.0641,0.0751,0.0893,0.1006,0.1057,0.1181,0.119,0.1312,0.1461,0.1612,0.1416,0.1486,0.1549,0.1494,0.1525,0.132,0.152,0.1172,0.1178,0.1182,0.1049,0.1131,0.113,0.113,0.1129,0,0,0.0637,0.0767,0.0784,0.0981,0.1092,0.1187,0.1233,0.1254,0.1305,0.1326,0.135,0.1426,0.1446,0.123,0.1205,0.121,0.1181,0.1162,0.1683,0.1276,0.1279,0.1254,0.1056,0,0,0,0,0]},{"header":{"parameterUnit":"m.s-1","parameterCategory":2,"la1":30.2991,"la2":30.254,"lo1":-89.0895,"lo2":-89.0444,"dy":0.0017,"dx":0.0017,"nx":28,"ny":28,"refTime":"2025-05-29T03:00:00:Z","depth":"2","parameterNumber":3,"parameterNumberName":"V-component_of_CURRENTS"},"data":[0,0,0,0,0,0,0,0,0,0,0,0,0,0,0,0,0,0,0,0,0,0,0,0,0,0,0,0,0,0,0,0,0,0,0,0,0,0,0,0,0,0,0,0,0,0,0,0,0,0,0,0,0,0,0,0,0,0,0.0259,0.026,0,0.0312,0.0313,0.0314,0.0343,0.0344,0.0344,0.0344,0.0417,0.0419,0.0421,0,0,0,0,0,0,0,0,0,0,0,0,0,0.0178,0.0179,0.0259,0.026,0.0261,0.0312,0.0313,0.0314,0.0343,0.0344,0.0344,0.0344,0.0416,0.0418,0.0421,0,0,0,0,0,0,0,0,0,0,0,0,0,0.0221,0.018,0.0259,0.0281,0.0283,0.0312,0.0313,0.0314,0.0343,0.0344,0.0344,0.0344,0.0415,0.0418,0.0421,0.0438,0,0,0.043,0.0431,0,0,0,0,0,0,0,0,0.0219,0.0224,0.0277,0.028,0.0282,0.0321,0.0311,0.0356,0.0343,0.0322,0.0344,0.0344,0.0386,0.0391,0.0402,0.0442,0.0445,0.043,0.0432,0.0433,0.0434,0,0,0,0,0,0,0,0.0216,0.0222,0.0281,0.0278,0.0281,0.0286,0.0292,0.032,0.0354,0.0323,0.0326,0.033,0.0388,0.0399,0.0404,0.0446,0.043,0.0433,0.0435,0.0436,0.0463,0.0462,0,0,0,0,0,0,0.0208,0.0219,0.028,0.0283,0.0249,0.0287,0.0294,0.0309,0.0353,0.036,0.033,0.0331,0.0394,0.0401,0.0407,0.0385,0.0433,0.0436,0.0438,0.0464,0.0462,0.0461,0,0,0,0,0,0,0.0206,0.0213,0.0277,0.0251,0.0259,0.0289,0.0305,0.031,0.0322,0.0358,0.0365,0.0336,0.0395,0.0403,0.0419,0.039,0.0437,0.044,0.0465,0.0463,0.0462,0.0371,0,0,0,0,0,0,0.0204,0.0213,0.0222,0.0251,0.026,0.0293,0.0305,0.0311,0.0324,0.0327,0.0366,0.0373,0.0395,0.0414,0.0422,0.0395,0.0442,0.0466,0.0464,0.0462,0.0375,0.0366,0.0359,0,0,0,0,0,0.0201,0.0222,0.0223,0.023,0.0273,0.0293,0.0298,0.0319,0.0324,0.033,0.0346,0.0371,0.0407,0.0416,0.0425,0.0398,0.0467,0.0465,0.0462,0.0379,0.0368,0.0359,0,0,0,0,0,0,0.0202,0.0228,0.0229,0.0259,0.0269,0.0297,0.0308,0.0317,0.0336,0.0337,0.0367,0.0375,0.0375,0.0403,0.0412,0.04,0.0438,0.0437,0.0371,0.0362,0.0354,0.0325,0.0445,0,0,0,0,0,0.0202,0.0219,0.0238,0.0259,0.0263,0.0281,0.0293,0.0303,0.0322,0.033,0.035,0.0367,0.0373,0.0381,0.04,0.0401,0.0415,0.0387,0.0379,0.0372,0.0354,0.0358,0.0348,0.0454,0.0454,0.0454,0,0,0.0209,0.0223,0.0235,0.0258,0.0268,0.0265,0.0289,0.0303,0.029,0.0335,0.0328,0.0346,0.0369,0.036,0.0362,0.038,0.0348,0.0369,0.0362,0.0349,0.0354,0.0344,0.0335,0.0452,0.0452,0.0453,0,0,0.0221,0.024,0.0249,0.0249,0.0258,0.0262,0.0262,0.028,0.0278,0.0279,0.0292,0.0281,0.0318,0.0301,0.0304,0.0263,0.0307,0.0283,0.0216,0.0219,0.021,0.0203,0.0198,0.0191,0.0276,0.0275,0.0275,0,0.0227,0.0245,0.0254,0.0249,0.0259,0.0254,0.0262,0.0242,0.0258,0.0279,0.0267,0.0293,0.0276,0.0267,0.0214,0.024,0.0261,0.025,0.0207,0.02,0.0194,0.0191,0.0184,0.0271,0.0271,0.0272,0.0272,0,0.0232,0.0243,0.0248,0.0236,0.0241,0.0251,0.0227,0.0229,0.0228,0.023,0.0235,0.0205,0.0232,0.0198,0.0172,0.0125,0.016,0.0198,0.0229,0.0177,0.0178,0.0173,0.0264,0.0266,0.0267,0.0268,0,0,0.0264,0.0258,0.0258,0.0274,0.0246,0.0268,0.023,0.0243,0.0266,0.0226,0.026,0.0165,0.0172,0.0167,0.0144,0.0086,0.0001,0.0097,0.0099,0.0085,0.0013,-0.0018,-0.0026,0.0049,0.0048,0.0047,0.0028,0,0.0273,0.0292,0.0272,0.0287,0.0308,0.0293,0.0277,0.0277,0.0277,0.0297,0.024,0.0244,0.0155,0.016,0.0084,0.0045,-0.0015,0.0002,0.0071,0.0072,0.0045,-0.0035,-0.0074,-0.0098,0.0023,0.0022,0.0021,0,0.0281,0.0307,0.0326,0.0371,0.0378,0.0361,0.0407,0.0386,0.038,0.039,0.0371,0.0351,0.024,0.0182,0.0061,0.009,0.002,-0.0032,-0.003,-0.0034,0.003,-0.0024,-0.0112,0.0012,0.0013,0.0014,0.0014,0,0.0335,0.0356,0.0389,0.039,0.0405,0.042,0.0423,0.0426,0.0433,0.0435,0.0462,0.0394,0.0351,0.0255,0.0093,0.0094,-0.002,0.0005,-0.0084,-0.0084,-0.0097,-0.0097,-0.0086,-0.0086,-0.0086,-0.0086,-0.0086,0,0.0367,0.0396,0.0416,0.043,0.048,0.0475,0.0508,0.0517,0.0524,0.0551,0.0496,0.0508,0.0358,0.028,0.0145,-0.0001,0.0035,-0.0128,-0.0104,-0.013,-0.0134,-0.001,-0.0001,-0.0087,-0.0087,-0.0087,-0.0086,0,0.0388,0.0402,0.0438,0.0476,0.0489,0.051,0.0525,0.0557,0.0565,0.0597,0.0592,0.057,0.0483,0.0339,0.0191,0.0066,-0.006,-0.0115,-0.0153,-0.0137,-0.0135,-0.013,-0.0201,-0.0203,-0.0204,-0.0205,-0.0206,0,0.0395,0.0413,0.0453,0.0463,0.0462,0.0494,0.0516,0.0552,0.0587,0.0641,0.0668,0.0615,0.0603,0.0385,0.0134,-0.0071,-0.0061,-0.0223,-0.0261,-0.0184,-0.0153,-0.0146,-0.014,-0.0309,-0.031,-0.0312,-0.0313,0,0.0393,0.0389,0.0415,0.0448,0.0469,0.0513,0.0556,0.0608,0.0665,0.0726,0.0809,0.0813,0.0595,0.0363,0.0061,-0.0075,-0.0196,-0.0257,-0.0153,-0.0276,-0.0288,-0.0256,-0.0246,-0.0325,-0.0324,-0.0323,-0.0322,-0.0322,0.0358,0.0374,0.0398,0.0431,0.0465,0.0538,0.0604,0.0683,0.0785,0.0906,0.0903,0.0883,0.0544,0.0134,-0.0079,-0.0293,-0.0281,-0.0367,-0.0362,-0.0355,-0.0367,-0.0381,-0.0438,-0.0437,-0.0437,-0.0436,-0.0436,0,0.0325,0.0357,0.0387,0.0448,0.0504,0.0529,0.0643,0.0734,0.0895,0.0943,0.102,0.0651,0.0403,0.0115,-0.0249,-0.0466,-0.0466,-0.048,-0.0456,-0.0446,-0.0436,-0.045,-0.0544,-0.0544,-0.0544,-0.0544,0,0,0.0309,0.0344,0.0388,0.0479,0.0531,0.0652,0.074,0.0871,0.0927,0.0964,0.0904,0.0788,0.0375,0.0062,-0.0222,-0.0353,-0.0325,-0.0368,-0.0275,-0.0205,-0.0191,-0.0382,-0.0395,0,0,0,0,0]}],[{"header":{"parameterUnit":"m.s-1","parameterCategory":2,"la1":30.2991,"la2":30.254,"lo1":-89.0895,"lo2":-89.0444,"dy":0.0017,"dx":0.0017,"nx":28,"ny":28,"refTime":"2025-05-29T03:00:00:Z","depth":"4","parameterNumber":2,"parameterNumberName":"U-component_of_CURRENTS"},"data":[0,0,0,0,0,0,0,0,0,0,0,0,0,0,0,0,0,0,0,0,0,0,0,0,0,0,0,0,0,0,0,0,0,0,0,0,0,0,0,0,0,0,0,0,0,0,0,0,0,0,0,0,0,0,0,0,0,0,0.0026,0.0027,0,0.0081,0.0082,0.0082,0.0106,0.0106,0.0106,0.0106,0.0116,0.0116,0.0116,0,0,0,0,0,0,0,0,0,0,0,0,0,-0.0029,-0.0029,0.0026,0.0027,0.0028,0.0081,0.0082,0.0082,0.0106,0.0106,0.0106,0.0106,0.0116,0.0116,0.0116,0,0,0,0,0,0,0,0,0,0,0,0,0,0.0006,-0.0029,0.0026,0.0047,0.0049,0.0081,0.0082,0.0083,0.0106,0.0106,0.0106,0.0106,0.0116,0.0116,0.0116,0.0118,0,0,0.0118,0.0118,0,0,0,0,0,0,0,0,0.0004,0.0007,0.0043,0.0045,0.0048,0.0088,0.0066,0.0093,0.0106,0.0083,0.0106,0.0106,0.0103,0.0105,0.0114,0.0119,0.0119,0.0118,0.0118,0.0118,0.0118,0,0,0,0,0,0,0,0.0001,0.0005,0.0047,0.0044,0.0047,0.0064,0.0068,0.0072,0.009,0.0085,0.0087,0.0095,0.0104,0.0113,0.0114,0.0119,0.0118,0.0118,0.0118,0.0118,0.0138,0.0139,0,0,0,0,0,0,-0.0004,0.0003,0.0045,0.0048,0.0027,0.0065,0.007,0.0074,0.0091,0.0095,0.0095,0.0096,0.0112,0.0113,0.0114,0.0138,0.0118,0.0118,0.0119,0.0138,0.0138,0.0139,0,0,0,0,0,0,-0.0006,-0.0001,0.0043,0.0028,0.0035,0.0065,0.007,0.0075,0.0091,0.01,0.0102,0.0107,0.0113,0.0114,0.0123,0.0138,0.0118,0.0119,0.0138,0.0138,0.0139,0.0172,0,0,0,0,0,0,-0.0008,-0.0002,0.0,0.0028,0.0036,0.0067,0.007,0.0076,0.0097,0.0098,0.0111,0.0111,0.0113,0.0122,0.0123,0.0138,0.0119,0.0137,0.0138,0.0138,0.0171,0.0174,0.0177,0,0,0,0,0,-0.001,-0.0004,-0.0,0.0005,0.0038,0.0067,0.0073,0.0094,0.0097,0.0107,0.0113,0.0111,0.0126,0.0123,0.0124,0.0139,0.0137,0.0138,0.0138,0.017,0.0173,0.0176,0,0,0,0,0,0,-0.0026,-0.0,0.0005,0.0018,0.0042,0.0072,0.0085,0.0097,0.0112,0.0112,0.0116,0.0117,0.0129,0.0127,0.0123,0.0145,0.0131,0.0132,0.0154,0.0158,0.0161,0.0179,0.0119,0,0,0,0,0,-0.0029,-0.002,0.0009,0.0018,0.0032,0.0058,0.0073,0.0088,0.0105,0.0112,0.0121,0.0127,0.0132,0.0139,0.0141,0.0156,0.017,0.0165,0.0168,0.017,0.0185,0.0216,0.0223,0.0141,0.0141,0.0141,0,0,-0.0035,-0.0018,-0.0014,0.0016,0.0035,0.0056,0.0067,0.0093,0.0111,0.0109,0.0132,0.0135,0.0136,0.0152,0.0158,0.0154,0.0201,0.0171,0.0174,0.0187,0.0217,0.0226,0.0233,0.0142,0.0141,0.0141,0,0,-0.0038,-0.0024,-0.0015,0.0007,0.004,0.0059,0.0067,0.0101,0.0117,0.0136,0.014,0.0158,0.0162,0.0178,0.0182,0.0202,0.0211,0.0197,0.0234,0.0263,0.027,0.0277,0.0309,0.0318,0.0203,0.0204,0.0204,0,-0.0045,-0.0029,-0.0008,0.0012,0.0033,0.0059,0.008,0.0101,0.0133,0.0154,0.0144,0.0178,0.0178,0.0212,0.0221,0.0211,0.0229,0.0222,0.0269,0.0276,0.0282,0.0313,0.0323,0.0205,0.0205,0.0205,0.0205,0,-0.0037,-0.0022,-0.0012,0.0017,0.0043,0.0066,0.01,0.0127,0.0145,0.0171,0.0207,0.0213,0.0241,0.0239,0.0237,0.0285,0.0284,0.0265,0.0264,0.0293,0.0323,0.0333,0.0208,0.0207,0.0207,0.0206,0,0,-0.0065,-0.0017,-0.0016,0.0005,0.005,0.0073,0.0109,0.0157,0.0191,0.0217,0.026,0.0279,0.0298,0.0305,0.0308,0.0336,0.0394,0.0327,0.0327,0.0366,0.0468,0.0426,0.0433,0.0386,0.0388,0.0389,0.0472,0,-0.0067,-0.0037,-0.0008,0.0026,0.005,0.0094,0.0129,0.0177,0.0213,0.026,0.0289,0.0325,0.0317,0.0337,0.0366,0.0383,0.0421,0.0374,0.0428,0.043,0.0396,0.0443,0.0395,0.0479,0.0482,0.0483,0.0484,0,-0.007,-0.0045,-0.0015,0.0044,0.006,0.0088,0.0161,0.02,0.0274,0.0303,0.0354,0.0376,0.0433,0.0409,0.048,0.0451,0.0473,0.0483,0.0486,0.0445,0.0407,0.0443,0.0502,0.0501,0.0499,0.0498,0.0497,0,-0.0097,-0.005,-0.0026,-0.0006,0.0062,0.0096,0.0142,0.0219,0.0263,0.0345,0.0381,0.044,0.0477,0.0511,0.0538,0.0519,0.0603,0.0575,0.0564,0.0561,0.0558,0.055,0.0637,0.0637,0.0636,0.0636,0.0636,0,-0.0104,-0.0086,-0.0034,-0.0016,0.003,0.009,0.0154,0.021,0.0291,0.0346,0.041,0.044,0.0505,0.0553,0.0567,0.0599,0.0633,0.0591,0.0586,0.0569,0.0561,0.0565,0.0556,0.0639,0.0639,0.0638,0.0637,0,-0.0133,-0.0105,-0.0072,-0.0005,0.002,0.006,0.016,0.0207,0.0291,0.0363,0.0393,0.0467,0.0517,0.0575,0.0633,0.0638,0.0667,0.067,0.0665,0.0655,0.0601,0.0593,0.0677,0.0676,0.0676,0.0675,0.0675,0,-0.0142,-0.0132,-0.0075,-0.0047,-0.0013,0.0055,0.0103,0.0196,0.0242,0.0357,0.0377,0.0462,0.0503,0.0574,0.0607,0.0666,0.0655,0.0698,0.0642,0.0622,0.0609,0.0601,0.0593,0.0674,0.0674,0.0674,0.0674,0,-0.0157,-0.0145,-0.0115,-0.0063,-0.0017,0.0038,0.0111,0.0143,0.0249,0.0311,0.0383,0.0445,0.0499,0.0541,0.0609,0.063,0.0685,0.0692,0.0693,0.0641,0.062,0.0605,0.0598,0.0672,0.0672,0.0672,0.0672,0,-0.0172,-0.0159,-0.0122,-0.0071,-0.0023,0.0027,0.0068,0.0138,0.02,0.0327,0.0327,0.0415,0.0472,0.052,0.0555,0.0604,0.0594,0.061,0.0615,0.0618,0.0559,0.052,0.0558,0,0,0,0,0,-0.0182,-0.0162,-0.0123,-0.006,-0.0015,0.0018,0.0077,0.0117,0.0197,0.0248,0.0306,0.0353,0.0439,0.0457,0.0496,0.0509,0.0583,0.0554,0.0599,0.0662,0.0664,0.0598,0,0,0,0,0,0,-0.0182,-0.0159,-0.013,-0.0063,-0.0018,0.0037,0.0071,0.0124,0.0156,0.0236,0.0266,0.0347,0.0404,0.0415,0.049,0.0504,0.0536,0.0603,0.0604,0.066,0.0662,0.0664,0.0598,0,0,0,0,0]},{"header":{"parameterUnit":"m.s-1","parameterCategory":2,"la1":30.2991,"la2":30.254,"lo1":-89.0895,"lo2":-89.0444,"dy":0.0017,"dx":0.0017,"nx":28,"ny":28,"refTime":"2025-05-29T03:00:00:Z","depth":"4","parameterNumber":3,"parameterNumberName":"V-component_of_CURRENTS"},"data":[0,0,0,0,0,0,0,0,0,0,0,0,0,0,0,0,0,0,0,0,0,0,0,0,0,0,0,0,0,0,0,0,0,0,0,0,0,0,0,0,0,0,0,0,0,0,0,0,0,0,0,0,0,0,0,0,0,0,0.0078,0.0077,0,0.0026,0.0025,0.0025,-0.0007,-0.0007,-0.0007,-0.0007,-0.0087,-0.0089,-0.0091,0,0,0,0,0,0,0,0,0,0,0,0,0,0.0118,0.0117,0.0078,0.0077,0.0077,0.0026,0.0025,0.0025,-0.0007,-0.0007,-0.0007,-0.0007,-0.0086,-0.0089,-0.0092,0,0,0,0,0,0,0,0,0,0,0,0,0,0.0085,0.0117,0.0078,0.0056,0.0054,0.0026,0.0025,0.0024,-0.0007,-0.0007,-0.0007,-0.0007,-0.0086,-0.0089,-0.0092,-0.0111,0,0,-0.0102,-0.0103,0,0,0,0,0,0,0,0,0.0087,0.0083,0.006,0.0058,0.0055,0.0018,0.001,-0.0022,-0.0007,0.0014,-0.0007,-0.0007,-0.0054,-0.0059,-0.0071,-0.0115,-0.0119,-0.0102,-0.0104,-0.0105,-0.0106,0,0,0,0,0,0,0,0.0089,0.0085,0.0056,0.0059,0.0057,0.0038,0.0034,0.0004,-0.0021,0.0012,0.001,0.0007,-0.0055,-0.0068,-0.0073,-0.012,-0.0102,-0.0105,-0.0107,-0.0108,-0.0204,-0.0204,0,0,0,0,0,0,0.0101,0.0088,0.0057,0.0054,0.0073,0.0038,0.0033,0.0028,-0.002,-0.0027,0.0008,0.0006,-0.0063,-0.007,-0.0076,-0.0094,-0.0105,-0.0108,-0.011,-0.0203,-0.0204,-0.0205,0,0,0,0,0,0,0.0102,0.0098,0.0059,0.0071,0.0065,0.0038,0.0032,0.0027,0.0009,-0.0023,-0.0031,-0.0005,-0.0063,-0.0072,-0.0114,-0.0098,-0.011,-0.0113,-0.0202,-0.0203,-0.0204,-0.0135,0,0,0,0,0,0,0.0103,0.0099,0.0096,0.0072,0.0065,0.004,0.0033,0.0026,0.0009,0.0006,-0.0036,-0.0043,-0.0064,-0.0109,-0.0117,-0.0102,-0.0115,-0.0202,-0.0203,-0.0204,-0.0136,-0.0133,-0.0131,0,0,0,0,0,0.0105,0.0099,0.0096,0.0092,0.0062,0.004,0.0034,0.0014,0.0008,-0.0002,-0.0035,-0.0042,-0.0122,-0.0113,-0.0122,-0.0107,-0.0201,-0.0202,-0.0204,-0.0137,-0.0134,-0.0131,0,0,0,0,0,0,0.0107,0.0095,0.0091,0.008,0.0062,0.0035,0.0025,0.0012,-0.0022,-0.0026,-0.0056,-0.0067,-0.0095,-0.0122,-0.0111,-0.0142,-0.0161,-0.0164,-0.0107,-0.0104,-0.0101,-0.0087,-0.0118,0,0,0,0,0,0.011,0.0105,0.0088,0.0077,0.0072,0.0048,0.0036,0.0022,-0.0007,-0.0021,-0.005,-0.0083,-0.0108,-0.0123,-0.0156,-0.0176,-0.0215,-0.0174,-0.0171,-0.0168,-0.0166,-0.0222,-0.0223,-0.0209,-0.0209,-0.0209,0,0,0.0107,0.01,0.0096,0.0078,0.0064,0.0067,0.004,0.0021,0.0027,-0.0026,-0.0038,-0.0079,-0.0115,-0.0135,-0.0149,-0.0153,-0.0194,-0.017,-0.0167,-0.0166,-0.0223,-0.0224,-0.0225,-0.021,-0.021,-0.021,0,0,0.0111,0.0095,0.0101,0.0094,0.0079,0.0068,0.0064,0.0037,0.0027,0.0001,-0.0027,-0.0056,-0.0107,-0.0115,-0.0128,-0.0132,-0.0182,-0.0153,-0.0119,-0.0172,-0.0173,-0.0174,-0.0225,-0.0232,-0.0145,-0.0145,-0.0145,0,0.0108,0.0111,0.0096,0.0107,0.0096,0.0075,0.0075,0.0075,0.0036,0.0004,0.0003,-0.0085,-0.0086,-0.0116,-0.0096,-0.0119,-0.0175,-0.012,-0.0166,-0.0168,-0.0171,-0.0223,-0.0231,-0.0142,-0.0142,-0.0142,-0.0143,0,0.0128,0.0128,0.0128,0.0141,0.0129,0.0117,0.0117,0.0096,0.0074,0.005,-0.0006,-0.0025,-0.009,-0.0074,-0.0072,-0.0096,-0.0139,-0.0157,-0.0166,-0.0168,-0.0223,-0.0232,-0.0137,-0.0138,-0.0139,-0.014,0,0,0.0113,0.0137,0.0135,0.0125,0.0136,0.011,0.013,0.0096,0.0057,0.0044,-0.002,-0.0003,-0.0053,-0.007,-0.0083,-0.0088,-0.0113,-0.0119,-0.0124,-0.0155,-0.0253,-0.0213,-0.0221,-0.0157,-0.0159,-0.016,-0.0283,0,0.0122,0.0135,0.0151,0.0142,0.0133,0.0119,0.0118,0.0088,0.0051,-0.0011,-0.0024,-0.0085,-0.0039,-0.0086,-0.0079,-0.0125,-0.0138,-0.0079,-0.026,-0.0265,-0.0218,-0.0229,-0.0164,-0.029,-0.0292,-0.0294,-0.0295,0,0.013,0.0128,0.013,0.0094,0.0086,0.0085,0.0011,0.0006,-0.0051,-0.0091,-0.0141,-0.0177,-0.0184,-0.0151,-0.0205,-0.0186,-0.0207,-0.0219,-0.0226,-0.0219,-0.0243,-0.0293,-0.0313,-0.0312,-0.031,-0.0309,-0.0308,0,0.0087,0.0096,0.0081,0.008,0.0062,0.0035,0.001,-0.004,-0.0075,-0.0157,-0.0206,-0.0256,-0.0287,-0.0319,-0.0305,-0.0287,-0.0377,-0.037,-0.0356,-0.0355,-0.0383,-0.0381,-0.0412,-0.0412,-0.0412,-0.0412,-0.0411,0,0.0072,0.0049,0.0053,0.0039,-0.0017,-0.0021,-0.0094,-0.0128,-0.0185,-0.0226,-0.026,-0.0287,-0.0328,-0.037,-0.0367,-0.0389,-0.0439,-0.0353,-0.0382,-0.0353,-0.0345,-0.039,-0.0386,-0.0416,-0.0415,-0.0414,-0.0414,0,0.0024,0.0042,0.0009,-0.0017,-0.0033,-0.0084,-0.0135,-0.0185,-0.0232,-0.0283,-0.0307,-0.0342,-0.0373,-0.0414,-0.0471,-0.0461,-0.0495,-0.0491,-0.0465,-0.0492,-0.0427,-0.0418,-0.0507,-0.0507,-0.0507,-0.0506,-0.0506,0,-0.0,-0.0012,-0.004,-0.0058,-0.0069,-0.013,-0.0163,-0.0211,-0.0236,-0.0284,-0.0295,-0.0349,-0.0358,-0.0425,-0.0458,-0.0519,-0.049,-0.0547,-0.045,-0.0416,-0.0437,-0.0428,-0.042,-0.0506,-0.0505,-0.0505,-0.0505,0,-0.0057,-0.0056,-0.0078,-0.0102,-0.0132,-0.0173,-0.0208,-0.0225,-0.0255,-0.0293,-0.0279,-0.0308,-0.0343,-0.038,-0.0446,-0.0467,-0.0536,-0.0542,-0.0542,-0.0451,-0.0415,-0.0434,-0.0426,-0.0504,-0.0504,-0.0504,-0.0504,0,-0.0104,-0.0123,-0.0125,-0.0152,-0.0177,-0.0188,-0.0216,-0.0214,-0.0241,-0.0256,-0.0241,-0.0275,-0.0304,-0.0353,-0.0398,-0.044,-0.0418,-0.0425,-0.0431,-0.0433,-0.035,-0.0288,-0.0368,0,0,0,0,0,-0.0147,-0.0152,-0.0173,-0.0189,-0.0202,-0.0211,-0.0224,-0.0235,-0.024,-0.0217,-0.0226,-0.0237,-0.0283,-0.0307,-0.0335,-0.039,-0.0446,-0.0427,-0.0461,-0.0498,-0.0499,-0.0407,0,0,0,0,0,0,-0.0176,-0.0189,-0.0178,-0.0197,-0.0207,-0.0224,-0.0225,-0.023,-0.0207,-0.0208,-0.0221,-0.0241,-0.0283,-0.0259,-0.0332,-0.0348,-0.0372,-0.0454,-0.0455,-0.0497,-0.0498,-0.0499,-0.0405,0,0,0,0,0]}]]